Location: Newark
(15.7835°S, 47.8992°W)
Time: 10:06:25
(UTC+00:00)

N. Korean satellite - Visible Passes

Search period start: 30 September 2020 00:00
Search period end: 10 October 2020 00:00
Orbit: 455 x 503 km, 97.2° (Epoch: 29 September)

Date Brightness Start Highest point End Pass type
(mag) Time Alt. Az. Time Alt. Az. Time Alt. Az.
30 Sep 6.8 08:08:10 10° NNE 08:11:37 70° ESE 08:15:02 10° S visible
01 Oct 9.0 07:42:49 10° NE 07:45:39 24° ESE 07:48:29 10° SSE visible
03 Oct 6.4 08:23:21 10° N 08:26:44 60° W 08:30:09 10° SSW visible
04 Oct 7.8 07:57:28 10° NNE 08:00:45 43° ESE 08:04:02 10° S visible
05 Oct 9.7 07:32:33 10° ENE 07:34:48 16° ESE 07:37:03 10° SE visible
07 Oct 6.5 08:12:24 10° NNE 08:15:48 85° E 08:19:15 10° S visible
08 Oct 8.7 07:46:50 10° NE 07:49:49 28° ESE 07:52:49 10° SSE visible
09 Oct 10.2 07:22:48 10° E 07:23:53 11° ESE 07:24:58 10° ESE visible
